RS23S (SXC3-21 UTMN) (53376 NORAD) Tracking and Keplerian Element Data

This shows tracking and keplerian element data for the satellite.

Feedback or suggestion? Click here.




ElementValue
Catalog53376
NameRS23S (SXC3-21 UTMN)
Epoch Orbit745
Epoch Day270.21126266
Epoch Year2022
RAAN171.3236
Inclination97.4305
Eccentricity0.0002977
Argument of Perigee44.4573
Mean Anonmoly59.1436
Mean Motion15.25235425
Decay Rate8.68E-05
L11 53376U 22096G 22270.21126266 .00008680 00000+0 34814-3 0 9996
L22 53376 97.4305 171.3236 0002977 44.4573 59.1436 15.25235425 7457

Live tracking and technical data element details for RS23S (SXC3-21 UTMN) (NORAD 53376). RS23S (SXC3-21 UTMN) can be tracked NOW for your location showing map with azimuth and elevation plus other details from your city location.

Track the satellite on the map from your city or location and see movement details for azimuth, elevation, latitude, longitude, range, height, and movement on the map or in text.







IsCatalogInMostPopularTable: catalog: 53376, numindb: 4
Update: records affected: 1



GetName: 53376 RS23S (SXC3-21 UTMN)

Hit Count: updated at: Wed, 28 Sep 2022 23:08:24 GMT